• In Germany
  • List of Countries
  • For 7 days
  • Water Temperature
  • Satellite Maps
  • Weather Map
  • Weather Widgets
  • user-avatar
    Login

    Hourly Weather Gjirokaster

    Today, 20 September, Thursday

    Time Temperature Precipitation Wind Pressure Humidity
    00:00 +15°C° 0 mm 1 mps 655 mmHg 66%
    01:00 +14°C° 0 mm 1 mps 655 mmHg 66%
    02:00 +14°C° 0 mm 1 mps 655 mmHg 66%
    03:00 +14°C° 0 mm 1 mps 655 mmHg 67%
    04:00 +13°C° 0 mm 1 mps 655 mmHg 67%
    05:00 +14°C° 0 mm 2 mps 655 mmHg 65%
    06:00 +15°C° 0 mm 2 mps 655 mmHg 63%
    07:00 +16°C° 0 mm 2 mps 655 mmHg 62%
    08:00 +18°C° 0 mm 2 mps 656 mmHg 55%
    09:00 +21°C° 0 mm 1 mps 656 mmHg 48%
    10:00 +23°C° 0 mm 1 mps 657 mmHg 41%
    11:00 +24°C° 0 mm 2 mps 657 mmHg 39%
    12:00 +24°C° 0 mm 2 mps 657 mmHg 38%
    13:00 +25°C° 0 mm 2 mps 657 mmHg 36%
    14:00 +24°C° 0 mm 2 mps 656 mmHg 40%
    15:00 +23°C° 0 mm 2 mps 656 mmHg 43%
    16:00 +23°C° 0 mm 2 mps 655 mmHg 47%
    17:00 +20°C° 0 mm 2 mps 655 mmHg 55%
    18:00 +19°C° 0 mm 1 mps 655 mmHg 63%
    19:00 +16°C° 0 mm 1 mps 655 mmHg 71%
    20:00 +16°C° 0 mm 1 mps 655 mmHg 71%
    21:00 +15°C° 0 mm 1 mps 655 mmHg 71%
    22:00 +15°C° 0 mm 1 mps 655 mmHg 71%
    23:00 +15°C° 0 mm 1 mps 655 mmHg 70%

    Tomorrow, 21 September, Friday

    Time Temperature Precipitation Wind Pressure Humidity
    00:00 +14°C° 0 mm 1 mps 654 mmHg 69%
    01:00 +14°C° 0 mm 1 mps 654 mmHg 68%
    02:00 +14°C° 0 mm 1 mps 654 mmHg 67%
    03:00 +13°C° 0 mm 1 mps 654 mmHg 67%
    04:00 +13°C° 0 mm 1 mps 654 mmHg 67%
    05:00 +14°C° 0 mm 1 mps 654 mmHg 64%
    06:00 +15°C° 0 mm 1 mps 655 mmHg 60%
    07:00 +16°C° 0 mm 1 mps 655 mmHg 57%
    08:00 +19°C° 0 mm 1 mps 655 mmHg 51%
    09:00 +21°C° 0 mm 1 mps 656 mmHg 46%
    10:00 +23°C° 0 mm 1 mps 657 mmHg 40%
    11:00 +24°C° 0 mm 1 mps 656 mmHg 39%
    12:00 +24°C° 0 mm 2 mps 656 mmHg 38%
    13:00 +25°C° 0 mm 2 mps 656 mmHg 37%
    14:00 +24°C° 0 mm 2 mps 656 mmHg 41%
    15:00 +23°C° 0 mm 2 mps 656 mmHg 45%
    16:00 +21°C° 0 mm 2 mps 655 mmHg 49%
    17:00 +20°C° 0 mm 2 mps 655 mmHg 57%
    18:00 +19°C° 0 mm 1 mps 655 mmHg 65%
    19:00 +16°C° 0 mm 1 mps 655 mmHg 73%
    20:00 +16°C° 0 mm 1 mps 655 mmHg 74%
    21:00 +15°C° 0 mm 1 mps 655 mmHg 75%
    22:00 +15°C° 0 mm 1 mps 655 mmHg 76%
    23:00 +15°C° 0 mm 1 mps 655 mmHg 76%

    Day after tomorrow, 22 September, Saturday

    Time Temperature Precipitation Wind Pressure Humidity
    00:00 +14°C° 0 mm 1 mps 655 mmHg 76%
    01:00 +14°C° 0 mm 1 mps 655 mmHg 75%
    02:00 +14°C° 0 mm 1 mps 655 mmHg 75%
    03:00 +14°C° 0 mm 1 mps 655 mmHg 74%
    04:00 +13°C° 0 mm 1 mps 655 mmHg 74%
    05:00 +14°C° 0 mm 1 mps 655 mmHg 69%
    06:00 +15°C° 0 mm 1 mps 655 mmHg 65%
    07:00 +16°C° 0 mm 1 mps 655 mmHg 61%
    08:00 +19°C° 0 mm 1 mps 656 mmHg 54%
    09:00 +21°C° 0 mm 1 mps 657 mmHg 48%
    10:00 +23°C° 0 mm 2 mps 657 mmHg 42%
    11:00 +24°C° 0 mm 2 mps 657 mmHg 40%
    12:00 +24°C° 0 mm 3 mps 657 mmHg 39%
    13:00 +25°C° 0 mm 3 mps 657 mmHg 37%
    14:00 +24°C° 0 mm 3 mps 657 mmHg 40%
    15:00 +23°C° 0 mm 4 mps 656 mmHg 43%
    16:00 +22°C° 0 mm 4 mps 656 mmHg 46%
    17:00 +20°C° 0 mm 3 mps 656 mmHg 53%
    18:00 +18°C° 0 mm 3 mps 656 mmHg 61%
    19:00 +16°C° 0 mm 2 mps 656 mmHg 68%
    20:00 +16°C° 0 mm 2 mps 656 mmHg 69%
    21:00 +16°C° 0 mm 2 mps 656 mmHg 71%
    22:00 +15°C° 0 mm 2 mps 656 mmHg 72%
    23:00 +15°C° 0 mm 2 mps 656 mmHg 72%

    23 September, Sunday

    Time Temperature Precipitation Wind Pressure Humidity
    00:00 +15°C° 0 mm 1 mps 656 mmHg 72%
    01:00 +14°C° 0 mm 1 mps 655 mmHg 71%
    02:00 +14°C° 0 mm 2 mps 655 mmHg 71%
    03:00 +14°C° 0 mm 2 mps 655 mmHg 70%
    04:00 +14°C° 0 mm 2 mps 655 mmHg 69%
    05:00 +15°C° 0 mm 2 mps 656 mmHg 66%
    06:00 +16°C° 0 mm 2 mps 656 mmHg 62%
    07:00 +17°C° 0 mm 2 mps 656 mmHg 59%
    08:00 +19°C° 0 mm 2 mps 657 mmHg 52%
    09:00 +22°C° 0 mm 1 mps 657 mmHg 45%
    10:00 +25°C° 0 mm 1 mps 658 mmHg 38%
    11:00 +25°C° 0 mm 2 mps 658 mmHg 36%
    12:00 +26°C° 0 mm 2 mps 658 mmHg 35%
    13:00 +26°C° 0 mm 3 mps 658 mmHg 33%
    14:00 +26°C° 0 mm 3 mps 657 mmHg 35%
    15:00 +25°C° 0 mm 3 mps 657 mmHg 38%
    16:00 +24°C° 0 mm 3 mps 657 mmHg 41%
    17:00 +21°C° 0 mm 2 mps 656 mmHg 47%
    18:00 +19°C° 0 mm 2 mps 656 mmHg 54%
    19:00 +17°C° 0 mm 2 mps 656 mmHg 61%
    20:00 +18°C° 0 mm 1 mps 656 mmHg 62%
    21:00 +18°C° 0 mm 1 mps 656 mmHg 63%
    22:00 +16°C° 0 mm 1 mps 656 mmHg 64%
    23:00 +16°C° 0 mm 1 mps 655 mmHg 65%

    24 September, Monday

    Time Temperature Precipitation Wind Pressure Humidity
    00:00 +16°C° 0 mm 1 mps 655 mmHg 67%
    01:00 +15°C° 0 mm 1 mps 654 mmHg 68%
    02:00 +15°C° 0 mm 1 mps 654 mmHg 69%
    03:00 +14°C° 0 mm 1 mps 654 mmHg 70%
    04:00 +14°C° 0 mm 1 mps 653 mmHg 71%
    05:00 +15°C° 0 mm 1 mps 653 mmHg 68%
    06:00 +16°C° 0 mm 1 mps 653 mmHg 65%
    07:00 +16°C° 0 mm 2 mps 653 mmHg 62%
    08:00 +18°C° 0 mm 2 mps 654 mmHg 54%
    09:00 +20°C° 0 mm 2 mps 654 mmHg 46%
    10:00 +22°C° 0 mm 3 mps 654 mmHg 39%
    11:00 +22°C° 0 mm 3 mps 654 mmHg 38%
    12:00 +24°C° 0 mm 3 mps 654 mmHg 37%
    13:00 +24°C° 0 mm 3 mps 654 mmHg 36%
    14:00 +24°C° 0 mm 3 mps 653 mmHg 39%
    15:00 +22°C° 0 mm 3 mps 652 mmHg 42%
    16:00 +22°C° 0 mm 3 mps 652 mmHg 44%
    17:00 +20°C° 0 mm 2 mps 652 mmHg 53%
    18:00 +18°C° 0 mm 2 mps 652 mmHg 62%
    19:00 +16°C° 0 mm 1 mps 651 mmHg 72%
    20:00 +15°C° 0 mm 1 mps 652 mmHg 74%
    21:00 +15°C° 0 mm 1 mps 652 mmHg 76%
    22:00 +14°C° 0 mm 1 mps 652 mmHg 79%
    23:00 +14°C° 0 mm 1 mps 652 mmHg 78%

    25 September, Tuesday

    Time Temperature Precipitation Wind Pressure Humidity
    00:00 +14°C° 0 mm 1 mps 652 mmHg 78%
    01:00 +13°C° 0 mm 1 mps 652 mmHg 78%
    02:00 +13°C° 0 mm 1 mps 652 mmHg 76%
    03:00 +12°C° 0 mm 2 mps 652 mmHg 75%
    04:00 +12°C° 0 mm 2 mps 652 mmHg 73%
    05:00 +12°C° 0 mm 2 mps 652 mmHg 67%
    06:00 +13°C° 0 mm 2 mps 652 mmHg 62%
    07:00 +13°C° 0 mm 2 mps 653 mmHg 57%
    08:00 +13°C° 0 mm 3 mps 653 mmHg 52%
    09:00 +16°C° 0 mm 3 mps 654 mmHg 47%
    10:00 +17°C° 0 mm 4 mps 655 mmHg 42%
    11:00 +18°C° 0 mm 4 mps 654 mmHg 42%
    12:00 +17°C° 0 mm 5 mps 654 mmHg 41%
    13:00 +17°C° 0 mm 5 mps 654 mmHg 41%
    14:00 +17°C° 0 mm 5 mps 654 mmHg 42%
    15:00 +16°C° 0 mm 6 mps 654 mmHg 42%
    16:00 +16°C° 0 mm 6 mps 653 mmHg 42%
    17:00 +14°C° 0 mm 6 mps 653 mmHg 46%
    18:00 +11°C° 0 mm 6 mps 653 mmHg 49%
    19:00 +9°C° 0 mm 6 mps 653 mmHg 53%
    20:00 +9°C° 0 mm 6 mps 653 mmHg 53%
    21:00 +8°C° 0 mm 6 mps 653 mmHg 54%
    22:00 +7°C° 0 mm 6 mps 653 mmHg 55%
    23:00 +5°C° 0 mm 6 mps 653 mmHg 54%
    Show more